Regional Weather Roundup
Issued by NWS

Home | Current Version | Previous Version | Text Only | Print | Product List | Glossary Off
Versions: 1 2 3 4 5 6 7 8 9 10 11 12 13 14 15 16 17 18 19 20 21 22 23 24 25 26 27 28 29 30 31 32 33 34 35 36 37 38 39 40 41 42 43 44 45 46 47 48 49 50

000
ASUS45 KBOI 052310
RWRID

IDAHO REGIONAL WEATHER ROUNDUP
NATIONAL WEATHER SERVICE BOISE ID
500 PM MDT SUN JUL 05 2015

NOTE: "FAIR" INDICATES FEW OR NO CLOUDS BELOW 12000 FEET
WITH NO SIGNIFICANT WEATHER AND/OR OBSTRUCTIONS TO VISIBILITY

IDZ012-014-060000-
SOUTHWEST IDAHO


CITY           SKY/WX    TMP DP  RH WIND       PRES   REMARKS
BOISE          LGT RAIN  77  54  44 CALM      29.97S
CALDWELL       CLOUDY    72  54  53 S5        29.94F
MOUNTAIN HOME  CLOUDY    83  50  31 N18       29.96R
$$

IDZ016-017-060000-
SOUTHCENTRAL IDAHO


CITY           SKY/WX    TMP DP  RH WIND       PRES   REMARKS
BURLEY         PTSUNNY   76  56  49 SW12      30.00R
JEROME         PTSUNNY   83  53  35 W10       30.00S
TWIN FALLS     CLOUDY    82  48  30 W8        29.99R
$$

IDZ019>023-060000-
SOUTHEAST IDAHO


CITY           SKY/WX    TMP DP  RH WIND       PRES   REMARKS
IDAHO FALLS    MOSUNNY   82  50  32 SW18      30.01F
POCATELLO      MOSUNNY   83  52  34 W14       30.01F
REXBURG        PTSUNNY   79  53  40 SW12      30.02F
$$

IDZ006-010-011-018-031-032-060000-
CENTRAL IDAHO MOUNTAINS


CITY           SKY/WX    TMP DP  RH WIND       PRES   REMARKS
MCCALL         CLOUDY    78  43  28 SW7       30.04R
HAILEY         PTSUNNY   81  46  30 W6          N/A
STANLEY          N/A     68  40  35 SW6       30.18R
SALMON         CLOUDY    82  46  28 W16G22    29.86R
CHALLIS        CLOUDY    82  38  20 SW14      29.99R
$$

IDZ002-004-006-007-026-060000-
NORTHERN IDAHO


CITY           SKY/WX    TMP DP  RH WIND       PRES   REMARKS
LEWISTON       SUNNY     98  42  14 W14       29.79S HX  94
LOWELL           N/A    102  49  16 CALM      29.76R HX  99
COEUR D`ALENE  MOSUNNY   82  48  30 N18G24    29.92S
MULLAN PASS    MOSUNNY   70  49  47 CALM      30.13R
$$


USA.gov is the U.S. government's official web portal to all federal, state and local government web resources and services.